Indonesia Terpercaya"/> Lidewapoker | Agen POKER online Indonesia Terpercaya

Jackpot

Texas Poker Multi Jackpot System

Kini Telah hadir Jackpot SUPER ROYAL FLUSH

Kini Telah hadir Jackpot 2000 (khusus table VIP keatas).

Ikutilah global jackpot yang tersedia di system kami, dengan system jackpot terbaru dan pertama di indonesia, anda dapat membeli jackpot dengan harga 100 rupiah saja dan menangkan hadiahnya hingga puluhan juta rupiah.

Jackpot bukanlah suatu keharusan untuk dibeli, namun kami memberikan suatu fitur tambahan untuk member tercinta dari www.lidewapoker.com.

Terdapat tiga pilihan harga jackpot yang bisa anda beli yaitu :100,500,1000 dan 2000(khusus table VIP Keatas) rupiah.

Hadiah dari Multi jackpot system www.lidewapoker.com

  1. full house x 10 harga jackpot yang anda beli.
      (contoh:anda membeli 1000 maka:1000 X10 = 10.000)
  2. four of kind x 250 harga jackpot yang anda beli
      (contoh:anda membeli 1000 maka:1000 X250 = 250.000)
  3. Straight flush x 1200
      (contoh:anda membeli 1000 maka:1000 X1200 = 1.200.000)
  4. Royal flush x 10000 harga jackpot yang anda beli
      (contoh:anda membeli 1000 maka:1000 X10000 = 10.000.000)
  5. SUPER ROYAL FLUSH x 30000 harga jackpot yang anda beli
      (contoh:anda membeli 1000 maka:1000 X30000 = 30.000.000)

Kondisi kartu

  1. full house adalah kondisi kartu dimana kartu anda dan kartu tengah dengan total 7 kartu bisa mendapatkan nilai 5 kartu dengan kombinasi 1 tris(three of kind) dan 1 pair, contoh 3 kartu 10 dan 2 kartu 5
  2. Four of kind adalah kondisi kartu dimana kartu anda dan kartu tengah dengan total 7 kartu bisa mendapatkan nilai 5 kartu dengan kombinasi 4 kartu yang sama jumlah dan 1 kartu apapun juga contoh anda mendapatkan 4 buah kartu angka 3 dan 1 kartu apapun.
  3. Staright flush adalah kondisi kartu dimana kartu anda dan kartu tengah dengan total 7 kartu bisa mendapatkan nilai 5 kartu dengan kombinasi seri / staright dengan kembang yang sama contoh : urutan kartu dari angka 5, 6, 7, 8 , 9 10 dengan kembang yg sama misalnya as hati
  4. Royal flush adalah kondisi kartu dimana kartu anda dan kartu tengah dengan total 7 kartu bisa mendapatkan nilai 5 kartu dengan kombinasi seri / staright dengan kembang yang sama tetapi kartu tersebut haruslah dimulai dari 10. contoh 10, Queen, Jack, King dan aces dengan kembang yang sama
  5. Super Royal flush adalah kondisi kartu dimana Kedua kartu anda digabung dengan 3 kartu pertama meja haruslah royal flush. contoh kartu anda 10,Queen kembang sama dan 3 kartu pertama meja adalah Jack, King dan aces dengan kembang yang sama

Demikian adalah penjelasan dari Multi Jackpot www.lidewapoker.com terima kasih dan selamat bermain salam hoki dari kami

Texas Poker Jackpot Winner

TOP SUPER ROYAL FLUSH
No.TanggalNamaPriceWin
127/06 17:28TANTE_PUKISuper Royal flush3,000,000
227/06 16:09QQALEXDSSuper Royal flush30,000,000
327/06 15:46YSR10Super Royal flush30,000,000
427/06 11:43BOTE0782Super Royal flush15,000,000
527/06 02:06D01CIPUTATSuper Royal flush3,000,000
TOP ROYAL FLUSH
No.TanggalNamaPriceWin
127/06 18:44ALLOY2Royal flush5,000,000
227/06 18:35Y57DXL822QRoyal flush1,000,000
327/06 18:35BIYANIDRoyal flush10,000,000
427/06 18:17KOHARoyal flush5,000,000
527/06 18:15RIZKAR2Royal flush10,000,000
TOP STRAIGHT FLUSH
No.TanggalNamaPriceWin
127/06 19:00DZIINETStraight Flush120,000
227/06 18:59AYANG129Straight Flush1,200,000
327/06 18:58AGARIO666Straight Flush600,000
427/06 18:57GATOT003Straight Flush120,000
527/06 18:54MRBAOZHAStraight Flush120,000
LATEST JACKPOT
No.TanggalNamaPriceWin
127/06 19:03SIDRATFull House10,000
227/06 19:03NG4LAU99Four Of A Kind25,000
327/06 19:03GOY666Full House1,000
427/06 19:03SUSUBULEFour Of A Kind25,000
527/06 19:03PININGGIT6Full House1,000
627/06 19:03TAUFIKSYAAFull House5,000
727/06 19:03IDOS03Full House1,000
827/06 19:03B195D4D1Full House20,000
927/06 19:03HARISPUTFull House10,000
1027/06 19:03ELO3BBZILCFull House5,000
1127/06 19:03CABAG03Full House5,000
1227/06 19:03COKI7788Full House1,000
1327/06 19:03SMV07Full House1,000
1427/06 19:03MB0D90Full House1,000
1527/06 19:03VERCESSFull House10,000
1627/06 19:02E8BD6AC9Full House1,000
1727/06 19:02HOKII_HOKIFull House1,000
1827/06 19:02SRFDONG8Full House10,000
1927/06 19:02ZAN3V0Full House1,000
2027/06 19:02MRBAOZHAFull House5,000
2127/06 19:02DRIZONEFull House1,000
2227/06 19:02FAYFAYFull House1,000
2327/06 19:02RIZKI12YESFull House1,000
2427/06 19:02DEDISURYANFull House10,000
2527/06 19:02THORPPKR88Full House5,000
2627/06 19:02AKASUTKI84Full House5,000
2727/06 19:02F2AB8F74Full House1,000
2827/06 19:02WITDRAWBNIFull House1,000
2927/06 19:02KLOPPPFull House1,000
3027/06 19:02LB88602Full House1,000
3127/06 19:02DEWY20Full House5,000
3227/06 19:02KOJOK33Full House1,000
3327/06 19:02YUDAASFour Of A Kind125,000
3427/06 19:02B4TOS4I09Full House1,000
3527/06 19:02UNCLEIBADFull House1,000
3627/06 19:02CAREUH02Full House1,000
3727/06 19:02NARDUBAFour Of A Kind250,000
3827/06 19:02BINTANG900Full House1,000
3927/06 19:02QUINSAH_Four Of A Kind25,000
4027/06 19:02AZ0DL295Z6Full House10,000
4127/06 19:02W3D3QGD352Four Of A Kind25,000
4227/06 19:02BIDIN12Full House10,000
4327/06 19:02COYPEAFull House1,000
4427/06 19:02YUDICASEFull House1,000
4527/06 19:02KANGVAROFull House20,000
4627/06 19:02TOPLES_09Full House5,000
4727/06 19:02FC7K8RHYKNFull House1,000
4827/06 19:02IG4TJV2XL3Full House5,000
4927/06 19:02HOKYO99Full House10,000
5027/06 19:02ARAXX666Full House1,000

Domino Multi Jackpot System

Ikutilah global jackpot yang tersedia di system kami, dengan system jackpot terbaru dan pertama di indonesia, anda dapat membeli jackpot dengan harga 100 rupiah saja dan menangkan hadiahnya hingga puluhan juta rupiah.

Jackpot bukanlah suatu keharusan untuk dibeli, namun kami memberikan suatu fitur tambahan untuk member tercinta dari www.lidewapoker.com.

Terdapat tiga pilihan harga jackpot yang bisa anda beli yaitu :100,500 dan 1000 rupiah.

Hadiah dari Multi jackpot system www.lidewapoker.com

  1. Murni Kecil x 50 harga jackpot yang anda beli.
      (contoh:anda membeli 1000 maka:1000 X 50 = 50.000)
  2. Murni Besar x 50 harga jackpot yang anda beli
      (contoh:anda membeli 1000 maka:1000 X 50 = 50.000)
  3. BALAK x 100 harga jackpot yang anda beli
      (contoh:anda membeli 1000 maka:1000 X 100 = 100.000)
  4. ENAM DEWA x 6666 harga jackpot yang anda beli
      (contoh:anda membeli 1000 maka:1000 X 6666 = 6.666.000)

Demikian adalah penjelasan dari Multi Jackpot www.lidewapoker.com terima kasih dan selamat bermain salam hoki dari kami

Domino Jackpot Winner

TOP ENAM DEWA
No.TanggalNamaPriceWin
127/06 18:34STATURORYmurni enam3,333,000
227/06 17:55RUDIAN83murni enam6,666,000
327/06 17:43DEW4QIUmurni enam6,666,000
427/06 14:03RATUNE88murni enam3,333,000
527/06 09:24ARGIYAK1murni enam6,666,000
TOP BALAK
No.TanggalNamaPriceWin
127/06 19:02BF809FF0balak50,000
227/06 18:59AAC99balak50,000
327/06 18:54RAFAY77balak10,000
427/06 18:54POSTIN9balak100,000
527/06 18:52AWEAWE4546balak10,000
LATEST JACKPOT
No.TanggalNamaPriceWin
127/06 19:02DENZXIXmurni besar50,000
227/06 19:02BF809FF0balak50,000
327/06 19:01HABE_GBmurni kecil25,000
427/06 19:00BOLDER43murni kecil25,000
527/06 18:59REZATEJOmurni kecil25,000
627/06 18:59AMIR1234murni besar50,000
727/06 18:59AAC99balak50,000
827/06 18:58C56A3D24murni besar25,000
927/06 18:58T4DIJOU88murni besar5,000
1027/06 18:58AQHWOUGD9Hmurni kecil50,000
1127/06 18:57IGLOW555murni kecil25,000
1227/06 18:57BEAT_047murni besar25,000
1327/06 18:56MAJU_TERUSmurni kecil50,000
1427/06 18:55MAUTAUYAmurni kecil25,000
1527/06 18:54RAFAY77balak10,000
1627/06 18:54POSTIN9balak100,000
1727/06 18:53AKING28murni kecil25,000
1827/06 18:52AWEAWE4546balak10,000
1927/06 18:52ABDI814balak100,000
2027/06 18:51RAFAY77murni kecil5,000
2127/06 18:50B4NGKRUT22balak50,000
2227/06 18:50ZAPPURUTmurni besar50,000
2327/06 18:49TEMPEKTUOmurni besar25,000
2427/06 18:49ASKA51balak10,000
2527/06 18:49FLAY9murni kecil50,000
2627/06 18:49MEN4N9JPmurni besar5,000
2727/06 18:48JOYSPA9532murni besar25,000
2827/06 18:47MAHAALmurni besar50,000
2927/06 18:47BLOWJO69balak100,000
3027/06 18:47BOLOBOLO9balak50,000
3127/06 18:47MODUSSSSSmurni besar50,000
3227/06 18:46O2NV8RS5NLmurni kecil50,000
3327/06 18:46DADONG9murni besar50,000
3427/06 18:46KOPS999murni besar50,000
3527/06 18:45IMAN234murni besar50,000
3627/06 18:44GERRY8murni besar5,000
3727/06 18:44NHNET14murni kecil25,000
3827/06 18:44VITHANZTmurni besar50,000
3927/06 18:43DIRTYHARYmurni kecil50,000
4027/06 18:43AHMAD_HAVIbalak100,000
4127/06 18:42SOSOH212murni kecil5,000
4227/06 18:42KENBRO77murni besar25,000
4327/06 18:41PICANTO88murni besar25,000
4427/06 18:41EC9PIGGD7Jmurni kecil25,000
4527/06 18:41HANCIK078murni kecil50,000
4627/06 18:40QATANAmurni besar5,000
4727/06 18:39SARWONNOmurni kecil50,000
4827/06 18:38BOBI4272balak100,000
4927/06 18:38BARBARQQmurni kecil25,000
5027/06 18:37M11033balak100,000

Ceme Multi Jackpot System

Jackpot dilihat dari gabungan kartu pemain dengan kartu bandar. Bandar harus membeli jackpot sebanyak jumlah player yang sedang duduk. Sebagai contoh bila terdapat 3 pemain duduk bermain, dan bandar memutuskan untuk membeli jackpot Rp 1.000, maka pada periode tersebut bandar akan membeli jackpot sebanyak 3xRp1.000 = Rp3.000.

Jackpot bukanlah suatu keharusan untuk dibeli, namun kami memberikan suatu fitur tambahan untuk member tercinta dari www.lidewapoker.com.

Terdapat tiga pilihan harga jackpot yang bisa anda beli yaitu :100,500 dan 1000 rupiah.

Hadiah dari Multi jackpot system www.lidewapoker.com

  1. Murni Kecil x 50 harga jackpot yang anda beli.
      (contoh:anda membeli 1000 maka:1000 X 50 = 50.000)
  2. Murni Besar x 50 harga jackpot yang anda beli
      (contoh:anda membeli 1000 maka:1000 X 50 = 50.000)
  3. BALAK x 200 harga jackpot yang anda beli
      (contoh:anda membeli 1000 maka:1000 X 200 = 200.000)
  4. ENAM DEWA x 6666 harga jackpot yang anda beli
      (contoh:anda membeli 1000 maka:1000 X 6666 = 6.666.000)

Demikian adalah penjelasan dari Multi Jackpot www.lidewapoker.com terima kasih dan selamat bermain salam hoki dari kami

Ceme Jackpot Winner

TOP ENAM DEWA
No.TanggalNamaPriceWin
127/06 19:02PET1R90murni enam3,333,000
227/06 18:54SETENMERAHmurni enam6,666,000
327/06 17:49AMB88222murni enam6,666,000
427/06 17:48TSC081murni enam6,666,000
527/06 17:48WW111222murni enam6,666,000
TOP BALAK
No.TanggalNamaPriceWin
127/06 19:02KO59Z0EE8Gbalak20,000
227/06 19:02RISKI40balak200,000
327/06 19:02IAP06balak200,000
427/06 19:01FR_46balak200,000
527/06 19:01KALOMBA3balak200,000
LATEST JACKPOT
No.TanggalNamaPriceWin
127/06 19:02MASONA99murni besar50,000
227/06 19:02BTL123murni kecil50,000
327/06 19:02FZMKINGmurni kecil5,000
427/06 19:02YASIN20murni kecil25,000
527/06 19:02AZXR12murni kecil5,000
627/06 19:02PET1R90murni enam3,333,000
727/06 19:02FALLS123murni kecil50,000
827/06 19:02KO59Z0EE8Gbalak20,000
927/06 19:02DARKGUARDmurni kecil5,000
1027/06 19:02RX8R7BIM6Fmurni besar5,000
1127/06 19:02RISKI40balak200,000
1227/06 19:02IAP06balak200,000
1327/06 19:01G451Mmurni kecil50,000
1427/06 19:01G451Mmurni kecil50,000
1527/06 19:01OKTA81murni kecil50,000
1627/06 19:01FR_46balak200,000
1727/06 19:01IYAKAMUmurni besar25,000
1827/06 19:01ELALANGmurni besar5,000
1927/06 19:01GORO89murni besar50,000
2027/06 19:01BENGHALmurni besar5,000
2127/06 19:01KALOMBA3balak200,000
2227/06 19:01GAAG5OM8QDbalak20,000
2327/06 19:00BOLBASAHmurni kecil25,000
2427/06 19:00G451Mmurni besar50,000
2527/06 19:00GONYARB8UNmurni besar50,000
2627/06 19:00MANEKIREMAmurni kecil25,000
2727/06 19:00XS4Lmurni kecil5,000
2827/06 19:00DAEENG66murni kecil50,000
2927/06 19:00PHITOY79murni kecil50,000
3027/06 19:00RUJ86murni besar5,000
3127/06 18:59DAWIONGmurni besar50,000
3227/06 18:59HAROZImurni besar25,000
3327/06 18:59DAWIONGmurni besar50,000
3427/06 18:59BONGOL30balak100,000
3527/06 18:59NNK89murni besar5,000
3627/06 18:59FORBES18murni kecil50,000
3727/06 18:59YURI6081murni besar5,000
3827/06 18:59BUU6NMXO1Dmurni besar5,000
3927/06 18:59DAEENG66murni besar50,000
4027/06 18:59BENGALL261murni kecil5,000
4127/06 18:59ELLY09murni kecil25,000
4227/06 18:59HENDRABOIMmurni besar5,000
4327/06 18:59WALLATbalak200,000
4427/06 18:59aadrallc58balak200,000
4527/06 18:59IMPIAN20balak20,000
4627/06 18:59LTUCU9H90Tmurni kecil50,000
4727/06 18:59JALUAKmurni kecil50,000
4827/06 18:59IYAKAMUmurni kecil25,000
4927/06 18:59QQANWARQmurni kecil25,000
5027/06 18:58BOOSJAYMbalak200,000